• In Romania
  • List of Countries
  • For 7 days
  • Water Temperature
  • Satellite Maps
  • Weather Map
  • Weather Widgets
  • user-avatar
    Login

    Hourly Weather Rogozinki

    Today, 21 July, Saturday

    Time Temperature Precipitation Wind Pressure Humidity
    00:00 +20°C° 0.2 mm 2 mps 739 mmHg 91%
    01:00 +20°C° 0.3 mm 2 mps 739 mmHg 92%
    02:00 +20°C° 0.3 mm 2 mps 739 mmHg 92%
    03:00 +20°C° 0 mm 2 mps 739 mmHg 93%
    04:00 +20°C° 0.4 mm 2 mps 739 mmHg 93%
    05:00 +20°C° 0.4 mm 2 mps 739 mmHg 93%
    06:00 +20°C° 0.4 mm 2 mps 739 mmHg 93%
    07:00 +21°C° 0.5 mm 2 mps 739 mmHg 90%
    08:00 +24°C° 0.5 mm 2 mps 739 mmHg 87%
    09:00 +25°C° 0.5 mm 3 mps 739 mmHg 83%
    10:00 +26°C° 1.1 mm 3 mps 739 mmHg 80%
    11:00 +26°C° 1.1 mm 4 mps 739 mmHg 77%
    12:00 +27°C° 1.1 mm 4 mps 739 mmHg 74%
    13:00 +27°C° 0.7 mm 4 mps 739 mmHg 74%
    14:00 +27°C° 0.7 mm 4 mps 739 mmHg 73%
    15:00 +28°C° 0.7 mm 5 mps 739 mmHg 73%
    16:00 +27°C° 0.8 mm 4 mps 739 mmHg 76%
    17:00 +27°C° 0.8 mm 4 mps 739 mmHg 80%
    18:00 +26°C° 0.8 mm 3 mps 739 mmHg 83%
    19:00 +25°C° 0.2 mm 3 mps 739 mmHg 86%
    20:00 +24°C° 0.2 mm 3 mps 739 mmHg 89%
    21:00 +22°C° 0.2 mm 3 mps 739 mmHg 92%
    22:00 +21°C° 0 mm 3 mps 739 mmHg 93%
    23:00 +21°C° 0 mm 4 mps 739 mmHg 94%

    Tomorrow, 22 July, Sunday

    Time Temperature Precipitation Wind Pressure Humidity
    00:00 +21°C° 0 mm 4 mps 739 mmHg 96%
    01:00 +20°C° 0 mm 4 mps 739 mmHg 96%
    02:00 +20°C° 0 mm 4 mps 739 mmHg 97%
    03:00 +20°C° 0 mm 5 mps 740 mmHg 97%
    04:00 +20°C° 0.1 mm 5 mps 740 mmHg 97%
    05:00 +20°C° 0.1 mm 4 mps 740 mmHg 96%
    06:00 +20°C° 0.1 mm 4 mps 740 mmHg 96%
    07:00 +20°C° 0 mm 5 mps 740 mmHg 95%
    08:00 +20°C° 0 mm 5 mps 740 mmHg 94%
    09:00 +21°C° 0 mm 5 mps 740 mmHg 93%
    10:00 +21°C° 0 mm 5 mps 740 mmHg 92%
    11:00 +21°C° 0 mm 5 mps 740 mmHg 91%
    12:00 +22°C° 0 mm 5 mps 741 mmHg 89%
    13:00 +22°C° 0 mm 6 mps 741 mmHg 88%
    14:00 +22°C° 0 mm 6 mps 741 mmHg 86%
    15:00 +22°C° 0 mm 6 mps 741 mmHg 85%
    16:00 +22°C° 0 mm 5 mps 741 mmHg 86%
    17:00 +21°C° 0 mm 5 mps 741 mmHg 88%
    18:00 +21°C° 0 mm 5 mps 741 mmHg 89%
    19:00 +20°C° 0 mm 5 mps 741 mmHg 90%
    20:00 +20°C° 0 mm 5 mps 741 mmHg 90%
    21:00 +20°C° 0 mm 6 mps 741 mmHg 91%
    22:00 +19°C° 0.1 mm 5 mps 741 mmHg 92%
    23:00 +19°C° 0.1 mm 5 mps 741 mmHg 92%

    Day after tomorrow, 23 July, Monday

    Time Temperature Precipitation Wind Pressure Humidity
    00:00 +19°C° 0.1 mm 5 mps 741 mmHg 93%
    01:00 +19°C° 0 mm 5 mps 741 mmHg 93%
    02:00 +19°C° 0 mm 5 mps 741 mmHg 94%
    03:00 +18°C° 0 mm 4 mps 741 mmHg 94%
    04:00 +17°C° 0.1 mm 5 mps 741 mmHg 94%
    05:00 +17°C° 0.1 mm 5 mps 741 mmHg 94%
    06:00 +17°C° 0.1 mm 5 mps 741 mmHg 94%
    07:00 +17°C° 0.1 mm 5 mps 741 mmHg 94%
    08:00 +17°C° 0.1 mm 5 mps 741 mmHg 93%
    09:00 +17°C° 0.1 mm 5 mps 741 mmHg 92%
    10:00 +19°C° 0.1 mm 5 mps 741 mmHg 91%
    11:00 +19°C° 0.1 mm 5 mps 741 mmHg 91%
    12:00 +19°C° 0.1 mm 5 mps 741 mmHg 90%
    13:00 +20°C° 0 mm 5 mps 741 mmHg 89%
    14:00 +20°C° 0 mm 5 mps 741 mmHg 89%
    15:00 +20°C° 0 mm 5 mps 741 mmHg 88%
    16:00 +20°C° 0 mm 5 mps 741 mmHg 89%
    17:00 +20°C° 0 mm 5 mps 741 mmHg 89%
    18:00 +20°C° 0 mm 5 mps 741 mmHg 90%
    19:00 +20°C° 0.5 mm 5 mps 741 mmHg 92%
    20:00 +19°C° 0.5 mm 5 mps 741 mmHg 93%
    21:00 +19°C° 0.5 mm 4 mps 741 mmHg 95%
    22:00 +19°C° 0.5 mm 4 mps 741 mmHg 95%
    23:00 +19°C° 0.5 mm 4 mps 741 mmHg 96%

    24 July, Tuesday

    Time Temperature Precipitation Wind Pressure Humidity
    00:00 +20°C° 0.5 mm 4 mps 742 mmHg 96%
    01:00 +19°C° 0.1 mm 4 mps 742 mmHg 96%
    02:00 +19°C° 0.1 mm 4 mps 742 mmHg 96%
    03:00 +19°C° 0.1 mm 5 mps 742 mmHg 96%
    04:00 +19°C° 0.5 mm 5 mps 742 mmHg 96%
    05:00 +19°C° 0.5 mm 5 mps 742 mmHg 96%
    06:00 +19°C° 0.5 mm 5 mps 742 mmHg 96%
    07:00 +19°C° 0.3 mm 5 mps 742 mmHg 94%
    08:00 +20°C° 0.3 mm 5 mps 743 mmHg 93%
    09:00 +20°C° 0.3 mm 5 mps 743 mmHg 92%
    10:00 +22°C° 0.3 mm 5 mps 743 mmHg 89%
    11:00 +23°C° 0.3 mm 5 mps 743 mmHg 86%
    12:00 +25°C° 0.3 mm 5 mps 743 mmHg 84%
    13:00 +25°C° 0.9 mm 5 mps 743 mmHg 82%
    14:00 +26°C° 0.9 mm 5 mps 744 mmHg 81%
    15:00 +26°C° 0.9 mm 5 mps 744 mmHg 79%
    16:00 +26°C° 0.3 mm 5 mps 744 mmHg 81%
    17:00 +26°C° 0.3 mm 4 mps 744 mmHg 82%
    18:00 +25°C° 0.3 mm 4 mps 744 mmHg 83%
    19:00 +23°C° 0 mm 4 mps 745 mmHg 86%
    20:00 +22°C° 0 mm 4 mps 745 mmHg 88%
    21:00 +21°C° 0 mm 4 mps 745 mmHg 90%
    22:00 +21°C° 0.1 mm 4 mps 745 mmHg 90%
    23:00 +20°C° 0.1 mm 4 mps 746 mmHg 90%

    25 July, Wednesday

    Time Temperature Precipitation Wind Pressure Humidity
    00:00 +20°C° 0.1 mm 4 mps 746 mmHg 90%
    01:00 +20°C° 0.2 mm 4 mps 746 mmHg 90%
    02:00 +19°C° 0.2 mm 4 mps 746 mmHg 90%
    03:00 +19°C° 0.2 mm 4 mps 746 mmHg 90%
    04:00 +19°C° 0 mm 4 mps 746 mmHg 89%
    05:00 +18°C° 0 mm 4 mps 746 mmHg 88%
    06:00 +18°C° 0 mm 4 mps 746 mmHg 87%
    07:00 +19°C° 0 mm 5 mps 747 mmHg 82%
    08:00 +21°C° 0 mm 6 mps 747 mmHg 78%
    09:00 +22°C° 0 mm 6 mps 747 mmHg 73%
    10:00 +23°C° 0 mm 7 mps 747 mmHg 70%
    11:00 +24°C° 0 mm 7 mps 747 mmHg 67%
    12:00 +26°C° 0 mm 8 mps 747 mmHg 64%
    13:00 +26°C° 0 mm 8 mps 747 mmHg 63%
    14:00 +26°C° 0 mm 8 mps 747 mmHg 63%
    15:00 +26°C° 0 mm 8 mps 747 mmHg 62%
    16:00 +24°C° 0 mm 7 mps 747 mmHg 66%
    17:00 +23°C° 0 mm 6 mps 747 mmHg 69%
    18:00 +22°C° 0 mm 5 mps 747 mmHg 72%
    19:00 +21°C° 0 mm 4 mps 748 mmHg 73%
    20:00 +21°C° 0 mm 4 mps 748 mmHg 74%
    21:00 +20°C° 0 mm 3 mps 748 mmHg 76%
    22:00 +20°C° 0 mm 3 mps 748 mmHg 78%
    23:00 +19°C° 0 mm 3 mps 748 mmHg 80%

    26 July, Thursday

    Time Temperature Precipitation Wind Pressure Humidity
    00:00 +19°C° 0 mm 3 mps 748 mmHg 83%
    01:00 +18°C° 0 mm 3 mps 749 mmHg 83%
    02:00 +18°C° 0 mm 4 mps 749 mmHg 84%
    03:00 +18°C° 0 mm 4 mps 749 mmHg 84%
    04:00 +18°C° 0 mm 4 mps 749 mmHg 84%
    05:00 +18°C° 0 mm 4 mps 749 mmHg 84%
    06:00 +18°C° 0 mm 4 mps 749 mmHg 84%
    07:00 +19°C° 0 mm 4 mps 750 mmHg 79%
    08:00 +21°C° 0 mm 5 mps 750 mmHg 73%
    09:00 +23°C° 0 mm 5 mps 750 mmHg 68%
    10:00 +24°C° 0 mm 6 mps 750 mmHg 66%
    11:00 +26°C° 0 mm 6 mps 750 mmHg 63%
    12:00 +27°C° 0 mm 6 mps 750 mmHg 61%
    13:00 +28°C° 0 mm 6 mps 750 mmHg 60%
    14:00 +28°C° 0 mm 6 mps 750 mmHg 60%
    15:00 +28°C° 0 mm 6 mps 750 mmHg 60%
    16:00 +28°C° 0.2 mm 5 mps 750 mmHg 65%
    17:00 +28°C° 0.2 mm 4 mps 750 mmHg 69%
    18:00 +27°C° 0.2 mm 3 mps 750 mmHg 74%
    19:00 +26°C° 0.1 mm 3 mps 750 mmHg 77%
    20:00 +24°C° 0.1 mm 3 mps 750 mmHg 80%
    21:00 +22°C° 0.1 mm 3 mps 750 mmHg 83%
    22:00 +21°C° 0 mm 3 mps 750 mmHg 84%
    23:00 +21°C° 0 mm 3 mps 750 mmHg 86%
    Show more